Regional Weather Roundup
Issued by NWS Grand Forks, ND

Home | Current Version | Previous Version | Text Only | Print | Product List | Glossary Off
Versions: 1 2 3 4 5 6 7 8 9 10 11 12 13 14 15 16 17 18 19 20 21 22 23 24 25 26 27 28 29 30 31 32 33 34 35 36 37 38 39 40 41 42 43 44 45 46 47 48 49 50

000
ASUS43 KFGF 291431
RWRFGF
PRAIRIE TO PINES  WEATHER ROUNDUP
NATIONAL WEATHER SERVICE EASTERN NORTH DAKOTA/GRAND FORKS ND
900 AM CDT FRI MAY 29 2015

 **SATELLITE DATA USED TO AUGMENT SKY COVER AT AUTOMATED STATIONS**
 *****  WEATHER ACROSS EASTERN NORTH DAKOTA  *****

CITY           SKY/WX    TMP DP  RH WIND       PRES   REMARKS
GRAND FORKS    CLOUDY    44  39  82 N26G36    30.10R
GRAND FRKS AFB CLOUDY    45  36  70 N29G38    30.13R
GRAND FRKS NWS   N/A     43 N/A N/A VRB12       N/A
DEVILS LAKE    CLOUDY    45  32  61 N24G32    30.16R
FARGO          CLOUDY    49  44  83 N22G30    30.05R
WAHPETON ARPT  CLOUDY    46  45  93 N18G29    30.01R
$$

 ***** WEATHER ACROSS CENTRAL AND WESTERN NORTH DAKOTA  *****

CITY           SKY/WX    TMP DP  RH WIND       PRES   REMARKS
BISMARCK       CLOUDY    48  42  80 N18G24    30.19R
MINOT          CLOUDY    45  34  65 N16       30.24R
JAMESTOWN      CLOUDY    48  41  76 N29G37    30.10R
MINOT AFB      CLOUDY    45  40  82 N18G24    30.24R
GARRISON         N/A     46  36  68 N12G26    30.22R
WILLISTON      CLOUDY    46  32  58 N12       30.30R
DICKINSON      CLOUDY    44  33  65 N14       30.23R
HETTINGER      CLOUDY    44  41  89 N17G26    30.22R
$$

 *****  OTHER AIRPORT OBSERVATIONS IN OUR AREA  *****

CITY           SKY/WX    TMP DP  RH WIND       PRES   REMARKS
WALHALLA         N/A     45  43  93 MISG      30.18R
GRAFTON AIRPOR CLOUDY    43  39  87 N23       30.16R
VALLEY CITY AR CLOUDY    46  45  93 N22G29    30.10R
CANDO          CLOUDY    43  34  70 N22G28    30.20R
CAVALIER APRT  NOT AVBL
GWINNER        NOT AVBL
ROLLA          CLOUDY    41  39  93 N18       30.22R
 ***** THE ABOVE OBSERVATIONS ARE NON NWS ARE NOT QUALITY
       CONTROLLED AND MAY MIS-REPORT RAIN FOR SNOW...
$$

  *****  WEATHER ACROSS NORTHERN MINNESOTA  *****

CITY           SKY/WX    TMP DP  RH WIND       PRES   REMARKS
FLAG ISLAND    CLOUDY    46  39  76 NW24G31   30.02R
WARROAD        CLOUDY    45  41  87 N20G28    30.06R
ROSEAU         CLOUDY    45  39  81 N21       30.07R
HALLOCK        CLOUDY    43  37  81 N20G29    30.14R
THF RVR FALLS  CLOUDY    45  39  81 N20       30.08R
BAUDETTE       CLOUDY    48  44  86 NW20G25   29.99R
WASKISH        CLOUDY    48  46  93 NW14G25   30.00R
CROOKSTON      CLOUDY    45  39  81 N23G30    30.10R
STEPHEN NDAWN    N/A     43  39  87 N21         N/A
GREENBUSH NDAW   N/A     43  39  87 N18         N/A
$$
  *****  WEATHER ACROSS CENTRAL AND WEST MINNESOTA  *****

CITY           SKY/WX    TMP DP  RH WIND       PRES   REMARKS
FOSSTON        CLOUDY    46  45  93 N20G25    30.04R
BEMIDJI        CLOUDY    50  49  96 N13G21    29.99R
PARK RAPIDS    CLOUDY    58  54  86 N15G21    29.93R
ELBOW LAKE     RAIN      56  56  97 N15       29.95R
WADENA         CLOUDY    59  55  88 N15       29.92R
DETROIT LAKES  CLOUDY    50  48  93 N16G31    30.01R
MOORHEAD       CLOUDY    46  45  93 N26G36    30.05R
FERGUS FALLS   LGT RAIN  54  54 100 N16G26    29.97R
MORRIS MN      LGT RAIN  61  59  94 NW14      29.93R
STAPLES        CLOUDY    61  59  94 N8        29.91S
$$
  *****  WEATHER ELSEWHERE ACROSS MINNESOTA  *****

CITY           SKY/WX    TMP DP  RH WIND       PRES   REMARKS
DULUTH         CLOUDY    59  56  89 SW8       29.87R
INTRNTL FALLS  CLOUDY    53  52  96 NW16      29.92R
ELY            NOT AVBL
CLOQUET        PTSUNNY   61  55  82 SW3       29.88R
WHEATON        DRIZZLE   48  46  93 NW23G31   30.00R
BRAINERD       CLOUDY    63  58  83 N3        29.91R
HIBBING        LGT RAIN  57  54  89 CALM      29.88R
ALEXANDRIA     CLOUDY    62  59  90 N12       29.93R
SAINT CLOUD    CLOUDY    65  61  87 N6        29.88R
MINNEAPOLIS    CLOUDY    68  64  87 S7        29.86F
$$

  *****  WEATHER ACROSS SOUTH DAKOTA  *****

CITY           SKY/WX    TMP DP  RH WIND       PRES   REMARKS
SIOUX FALLS    LGT RAIN  64  61  90 NW3       29.89R
BROOKINGS      CLOUDY    63  59  88 N6        29.92R
WATERTOWN      CLOUDY    55  54  96 N16G30    29.95R FOG
HURON            N/A    N/A N/A N/A MISG      29.92R
SISSETON         N/A     51  51 100 N23G33    29.99R
ABERDEEN       LGT RAIN  52  48  86 N25G35    30.04R
MITCHELL       RAIN      64  63  96 N9        29.90R FOG
PIERRE         HVY RAIN  53  52  96 N22G31    30.03R FOG
MOBRIDGE       CLOUDY    52  48  86 N20G32    30.09R
RAPID CITY     LGT RAIN  48  47  96 N25G33    30.18R FOG
$$

  *****  SOME WEATHER IN NEARBY STATES *****

CITY           SKY/WX    TMP DP  RH WIND       PRES   REMARKS
GLASGOW MT     SUNNY     44  33  65 NE9       30.34S
GREAT FALLS MT CLOUDY    47  42  83 CALM      30.28S
CHEYENNE WY    CLOUDY    51  41  68 N9        30.21R
SCOTTSBLUFF NE CLOUDY    55  51  86 W8        30.15R
OMAHA NE       CLOUDY    68  64  87 S5        29.93R
DES MOINES IA  CLOUDY    68  63  84 SW12      29.95R
DAVENPORT IA   CLOUDY    72  65  78 S10       29.99R
CHICAGO IL     PTSUNNY   75  65  70 S7        30.04R
EAU CLAIRE WI  LGT RAIN  65  63  93 S7        29.91R
LA CROSSE WI   PTSUNNY   72  63  73 SW10      29.94R
$$

  *****  SOME NATIONAL WEATHER *****

CITY           SKY/WX    TMP DP  RH WIND       PRES   REMARKS
LA GUARDIA NY  SUNNY     72  54  53 NE10      30.30S
RALEIGH NC     MOSUNNY   77  65  66 W3        30.26S
ATLANTA GA     PTSUNNY   73  65  75 VRB5      30.24R
NEW ORLEANS LA MOSUNNY   82  72  71 SE9       30.08R
OKLAHOMA CITY  CLOUDY    68  63  84 W6        29.97R
ALBUQUERQUE NM PTSUNNY   63  37  38 N7        30.16R
SALT LAKE CITY SUNNY     57  45  64 SE8       30.19R
LOS ANGELES CA CLOUDY    59  56  89 VRB5      29.96R FOG
BOISE ID       MOSUNNY   62  47  57 S10       30.11R
SEATTLE WA     MOSUNNY   58  54  86 S6        30.00F
$$

*** WEATHER ACROSS MANITOBA...SASKATCHEWAN AND ONTARIO ***
                ***ONTARIO***

CITY           SKY/WX    TMP DP  RH WIND       PRES   REMARKS
GERALDTON      CLOUDY    63  55  77 SW12G18   29.81F
THUNDER BAY    CLOUDY    50  46  87 E3        29.85F
SIOUX LOOKOUT  DRIZZLE   52  50  93 NW8       29.91R FOG
TORONTO        CLOUDY    70  54  56 SE8       30.23S
BIG TROUT LK   LGT RAIN  36  36 100 E12       30.00S
PICKLE LAKE    DRIZZLE   45  45 100 NE5       29.88R FOG
DRYDEN         CLOUDY    46  46 100 NW10G20   29.94R
KENORA         CLOUDY    43  39  87 N17G28    30.00R
$$
                *** MANITOBA***

CITY           SKY/WX    TMP DP  RH WIND       PRES   REMARKS
BRANDON        PTSUNNY   43  32  65 N18G25    30.27R
DAUPHIN        MOSUNNY   41  34  75 N18G26    30.30R
ISLAND LAKE    LGT SNOW  32  30  93 N16G23    30.14R FOG     WCI  21
PILOT MOUND      N/A     41  34  75 N24G32      N/A
THE PAS        MOSUNNY   36  25  64 N10G17    30.38R
THOMPSON       FLURRIES  28  23  80 NE14      30.35R WCI  17
WINNIPEG       CLOUDY    41  34  75 N21G29    30.19R
LYNN LAKE      CLOUDY    30  21  69 NE12G17   30.41S WCI  21
CHURCHILL      FLURRIES  27  23  86 NE7       30.41  WCI  19
GILLAM         SNOW      25  23  93 NE15G23   30.30R VSB 1/2 WCI  12
$$
                ***SASKATCHEWAN***

CITY           SKY/WX    TMP DP  RH WIND       PRES   REMARKS
ESTEVAN        CLOUDY    43  32  65 N14       30.31R
KINDERSLEY     MOSUNNY   43  30  61 SE10      30.37R
LLOYDMINSTER   MOSUNNY   45  28  53 S8        30.37S
PRINCE ALBERT  MOSUNNY   39  25  56 E7        30.43
REGINA         PTSUNNY   43  28  56 N13       30.35R
YORKTON        CLOUDY    39  28  65 N15       30.34R
N. BATTLEFORD  SUNNY     43  32  65 SE8       30.42R
LA RONGE       PTSUNNY   36  19  51 E8        30.47R
SASKATOON      MOSUNNY   41  28  60 NE6       30.42R
SWIFT CURRENT  SUNNY     43  32  65 SE8       30.34R
$$
NOTE: THESE ARE AUTOMATED STATIONS WITH LIMITED QUALITY CONTROL
      "FAIR" INDICATES FEW OR NO CLOUDS BELOW 12,000 FEET WITH NO
      SIGNIFICANT WEATHER AND/OR OBSTRUCTIONS TO VISIBILITY.
      SKY/WX - SKY CONDITION AND SIGNIFICANT WEATHER.
      TMP - AIR TEMPERATURE.    DP   - DEWPOINT TEMPERATURE.
      RH  - RELATIVE HUMIDITY.  PRES - PRESSURE.
      HX  - HEAT INDEX.         WCI  - WIND CHILL INDEX.
$



USA.gov is the U.S. government's official web portal to all federal, state and local government web resources and services.